2024-174D

Last updated on Tue Oct 08 2024 00:02:04 GMT+0000 (Coordinated Universal Time)

1 61241U 24174D 24281.56419235 .00022159 00000+0 11386-2 0 9993 2 61241 97.4533 286.6310 0013801 234.5676 125.4269 15.16409831 1872
UTC large
Height (km)
Speed (km/s)
/
Latitude / Longitude
Inclination (degrees)
Orbital Period (minutes)
Azimuth
Elevation
Range (km)
Doppler Factor

Next 0 passes for location: London (51.5072 / 0.1276)

Sorry there are no passes over London.